Regional Weather Roundup
Issued by NWS

Home | Current Version | Previous Version | Graphics & Text | Print | Product List | Glossary On
Versions: 1 2 3 4 5 6 7 8 9 10 11 12 13 14 15 16 17 18 19 20 21 22 23 24 25 26 27 28 29 30 31 32 33 34 35 36 37 38 39 40 41 42 43 44 45 46 47 48 49 50
000
ASUS43 KLOT 032010
RWRIL

ILLINOIS REGIONAL WEATHER ROUNDUP
NATIONAL WEATHER SERVICE CHICAGO/ROMEOVILLE IL
200 PM CST TUE MAR 03 2015

NOTE: "FAIR" INDICATES FEW OR NO CLOUDS BELOW 12,000 FEET WITH NO
SIGNIFICANT WEATHER AND/OR OBSTRUCTIONS TO VISIBILITY.

* THESE STATIONS ARE NOT UNDER NWS QUALITY CONTROL. THEY ALSO MAY NOT
  REPORT WEATHER SUCH AS PRECIPITATION OR FOG.

ILZ001-002-007-009-015-016-024-032100-
NORTHWEST ILLINOIS

CITY           SKY/WX    TMP DP  RH WIND       PRES   REMARKS
MOLINE         CLOUDY    34  31  88 W17G23    29.70R WCI  23
STERLING*      CLOUDY    34  32  93 W18       29.67S WCI  23
SAVANNA*       CLOUDY    34  32  91 W10G20    29.68R FOG     WCI  26
$$

ILZ003-004-008-010-011-017-018-032100-
NORTH CENTRAL ILLINOIS

CITY           SKY/WX    TMP DP  RH WIND       PRES   REMARKS
ROCKFORD       DRIZZLE   32  29  88 W15       29.64F FOG     WCI  22
FREEPORT*      CLOUDY    32  30  93 W13       29.65S FOG     WCI  22
ROCHELLE*      CLOUDY    32  32  99 W8        29.65S FOG     WCI  25
DE KALB*       CLOUDY    32  30  94 W10       29.63S FOG     WCI  23
PERU*          CLOUDY    36  34  93 W15G25    29.67S FOG     WCI  26
$$

ILZ005-006-012>014-019>023-032100-
NORTHEAST ILLINOIS

CITY           SKY/WX    TMP DP  RH WIND       PRES   REMARKS
CHICAGO-OHARE  DRIZZLE   33  31  92 W16       29.62F FOG     WCI  23
CHICAGO-MIDWAY DRIZZLE   36  33  89 W16       29.64S FOG     WCI  26
AURORA         CLOUDY    35  31  85 W17       29.64F FOG     WCI  25
LANSING*       CLOUDY    35  34  96 W16       29.65F FOG     WCI  25
JOLIET*        CLOUDY    34  33  93 W13G23    29.66S FOG     WCI  25
WAUKEGAN       CLOUDY    33  31  92 W9        29.59F WCI  25
DUPAGE AIRPORT CLOUDY    33  31  92 W18       29.62F FOG     WCI  22
KANKAKEE*      CLOUDY    36  35  96 SW20G28   29.69R FOG     WCI  25
WHEELING       CLOUDY    34  31  88 W14G22    29.63S FOG     WCI  25
MORRIS*        CLOUDY    35  34  97 W18       29.66R FOG     WCI  24
ROMEOVILLE*    CLOUDY    34  33  98 W20       29.65R FOG     WCI  22
NORTHERLY ISL    N/A     35  33  92 W14         N/A  WCI  26
$$

LMZ740>746-032100-
SOUTHERN LAKE MICHIGAN

STATION/POSITION SKY/WX   TEMP    WIND        PRES    VSBY  WAVE
                          AIR SEA DIR/SP/G                  HT/PER
                          (F)     (DEG/KT/KT) (MB)    (MI)  (FT/S)
WAUKEGAN HARBOR            33                   N/A
HARRISON CRIB              34     240/ 19/ 29   N/A
BURNHAM HARBOR             35     270/ 11/ 17   N/A
CALUMET HARBOR             35     230/ 10/ 14 1002.5R
MICHIGAN CITY              35     200/ 19/ 23   N/A
$$

ILZ025>027-034>036-040-047-049-050-058-095>099-032100-
WEST-CENTRAL ILLINOIS

CITY           SKY/WX    TMP DP  RH WIND       PRES   REMARKS
QUINCY         CLOUDY    39  36  89 W12       29.75S FOG     WCI  32
GALESBURG*     CLOUDY    35  34  96 W14       29.71S FOG     WCI  26
MACOMB*        CLOUDY    36  35  97 W15G21    29.75S FOG     WCI  26
JACKSONVILLE*  CLOUDY    40  38  91 SW14      29.75F FOG
PITTSFIELD*    CLOUDY    41  38  89 SW14G20   29.78S
$$

ILZ028>032-037-038-041>044-048-051>054-059>061-032100-
CENTRAL ILLINOIS

CITY           SKY/WX    TMP DP  RH WIND       PRES   REMARKS
PONTIAC        CLOUDY    36  35  96 SW21      29.71R FOG     WCI  25
BLOOMINGTON    CLOUDY    37  37 100 W18       29.72R FOG     WCI  27
DECATUR        CLOUDY    39  38  96 SW14      29.76R FOG     WCI  31
PEORIA         CLOUDY    38  35  89 W12       29.71S WCI  30
LACON*         CLOUDY    36  33  88 W15       29.70S WCI  26
LINCOLN*       CLOUDY    39  37  91 SW7       29.75R FOG     WCI  34
SPRINGFIELD    CLOUDY    39  36  89 SW13G22   29.76S FOG     WCI  31
TAYLORVILLE    CLOUDY    37  36  93 SW12      29.77F FOG     WCI  30
$$

ILZ033-039-045-046-055>057-062-063-032100-
EAST-CENTRAL ILLINOIS

CITY           SKY/WX    TMP DP  RH WIND       PRES   REMARKS
CHAMPAIGN      FOG       36  35  96 SW18      29.74F VSB 1/2 WCI  26
DANVILLE*      LGT RAIN  38  37  97 SW16G25   29.70S WCI  28
RANTOUL*       CLOUDY    37  37  97 SW20G25   29.73S FOG     WCI  27
MATTOON        LGT RAIN  40  32  73 SW13G18   29.76S
PARIS*         LGT RAIN  38  37  98 SW15      29.77S WCI  29
$$

ILZ079-100>102-032100-
SOUTHWEST ILLINOIS

CITY           SKY/WX    TMP DP  RH WIND       PRES   REMARKS
BELLEVILLE     CLOUDY    41  41  99 VRB2      29.79F FOG
CAHOKIA*       CLOUDY    46  44  93 S3        29.79F
SPARTA*        CLOUDY    42  40  93 S6        29.82S
$$

ILZ064>066-069>071-074>076-080>082-084>086-088>090-092>094-032100-
SOUTH-CENTRAL ILLINOIS

CITY           SKY/WX    TMP DP  RH WIND       PRES   REMARKS
CARBONDALE     CLOUDY    46  43  89 SW14      29.84F
CAIRO*         FOG      N/A N/A N/A S10G16    29.89F VSB 1/4
EFFINGHAM*     FOG       41  38  91 SW9       29.81R VSB 3/4
MARION         CLOUDY    46  45  93 S12       29.85F
MT. VERNON     CLOUDY    41  37  87 SW10      29.83R
CENTRALIA*     CLOUDY    42  39  89 SW13G20   29.80F FOG
SALEM*         RAIN      43  41  91 SW15      29.80S
METROPOLIS*    FOG       48  48 100 SW7       29.88F VSB 1/4
$$

ILZ067-068-072-073-078-083-087-091-032100-
SOUTHEAST ILLINOIS

CITY           SKY/WX    TMP DP  RH WIND       PRES   REMARKS
LAWRENCEVILLE  LGT RAIN  41  40  96 SW13      29.81S VSB<1/4
FLORA*         CLOUDY    42  42  97 SW13      29.81S FOG
FAIRFIELD*     LGT RAIN  44  43  97 SW9       29.81R
HARRISBURG*    RAIN      46  46 100 SW16      29.84F
ROBINSON*      FOG       40  40  99 SW14      29.80S VSB 3/4
CARMI*         CLOUDY    49  48  96 SW20G25   29.82F FOG
$$

ABBREVIATIONS USED IN REMARKS
   TC - TEMPERATURE IN CELSIUS
  WCI - WIND CHILL INDEX
   HX - HEAT INDEX
  VSB - VISIBILITY
$$




USA.gov is the U.S. government's official web portal to all federal, state and local government web resources and services.